Regional Weather Roundup
Issued by NWS

Home | Current Version | Previous Version | Graphics & Text | Print | Product List | Glossary Off
Versions: 1 2 3 4 5 6 7 8 9 10 11 12 13 14 15 16 17 18 19 20 21 22 23 24 25 26 27 28 29 30 31 32 33 34 35 36 37 38 39 40 41 42 43 44 45 46 47 48 49 50

000
ASUS43 KFSD 252210
RWRSD

WEATHER ROUNDUP FOR SOUTH DAKOTA
NATIONAL WEATHER SERVICE SIOUX FALLS SD
500 PM CDT FRI JUL 25 2014

NOTE: "FAIR" INDICATES FEW OR NO CLOUDS BELOW 12,000 FEET WITH NO
SIGNIFICANT WEATHER AND/OR OBSTRUCTIONS TO VISIBILITY.


SDZ001>005-009-010-012>017-252300-
NORTHWEST AND NORTH CENTRAL SOUTH DAKOTA

CITY           SKY/WX    TMP DP  RH WIND       PRES   REMARKS
BUFFALO          N/A     82  49  31 S13       29.82F
FAITH            N/A     84  42  22 VRB5      29.87F
MOBRIDGE       SUNNY     85  47  26 N7        29.81S
$$

SDZ012>016-024>037-041>051-057-063-072>074-252300-
SOUTHWEST AND SOUTH CENTRAL SOUTH DAKOTA

CITY           SKY/WX    TMP DP  RH WIND       PRES   REMARKS
RAPID CTY ARPT SUNNY     80  51  36 S12       29.89F
PIERRE         SUNNY     87  46  24 N14G20    29.80F
CUSTER         SUNNY     78  46  32 VRB7      30.03F
ELLSWORTH AFB  SUNNY     82  49  30 S12       29.89F
PHILIP         SUNNY     89  41  18 E5        29.83F
PINE RIDGE     SUNNY     82  52  35 SE9       29.90F
WINNER         FAIR      92  63  38 VRB3      29.81F
$$

SDZ004>011-016>023-039-040-252300-
NORTHEAST SOUTH DAKOTA

CITY           SKY/WX    TMP DP  RH WIND       PRES   REMARKS
ABERDEEN       PTSUNNY   79  68  69 NE10G21   29.78F
WATERTOWN      CLOUDY    76  68  76 NW10      29.80F
SISSETON         N/A     76  69  79 N8        29.78S
$$

SDZ017-020-022-023-036>040-048>070-252300-
SOUTHEAST SOUTH DAKOTA

CITY           SKY/WX    TMP DP  RH WIND       PRES   REMARKS
SIOUX FALLS    MOSUNNY   86  71  60 VRB3      29.78S
HURON          CLOUDY    79  68  69 N12       29.79S
CHAMBERLAIN    MOSUNNY   87  69  54 NE12      29.79S
MITCHELL       SUNNY     84  70  62 N14G22    29.78F
YANKTON        SUNNY     88  73  62 NE6       29.76S HX  96
$$

ABBREVIATIONS USED IN REMARKS
   TC - TEMPERATURE IN CELSIUS
  WCI - WIND CHILL INDEX
   HX - HEAT INDEX
  VSB - VISIBILITY




USA.gov is the U.S. government's official web portal to all federal, state and local government web resources and services.